Regional Weather Roundup
Issued by NWS Lake Charles, LA

Current Version | Previous Version | Text Only | Print | Product List | Glossary On
Versions: 1 2 3 4 5 6 7 8 9 10 11 12 13 14 15 16 17 18 19 20 21 22 23 24 25 26 27 28 29 30 31 32 33 34 35 36 37 38 39 40 41 42 43 44 45 46 47 48 49 50
000
ASUS44 KLCH 170710
RWRLCH
RWRLCH
REGIONAL WEATHER ROUNDUP
NATIONAL WEATHER SERVICE LAKE CHARLES LA
200 AM CDT WED SEP 17 2014

Note: "fair" indicates few or no clouds below 12,000 feet with no
significant weather and/or obstructions to visibility.


ACROSS SOUTHEAST TEXAS

CITY           SKY/WX    TMP DP  RH WIND       PRES   REMARKS
BEAUMONT       CLOUDY    78  76  93 E5        29.98F
BEAUMONT CITY  CLOUDY    75  75  99 CALM      29.98F
ORANGE         CLOUDY   N/A N/A N/A CALM      30.00F
JASPER         CLOUDY    72  71  96 CALM      30.01F FOG
$$

ACROSS CENTRAL LOUISIANA

CITY           SKY/WX    TMP DP  RH WIND       PRES   REMARKS
LEESVILLE      MOCLDY    73  72  94 CALM      29.98F
FULLERTON      CLOUDY    74  71  91 CALM      29.96S
ALEXANDRIA INT PTCLDY    72  71  97 CALM      29.97F FOG
ESLER FIELD    PTCLDY    71  69  93 SE3       29.99F
DERIDDER       FOG       74  72  96 CALM      30.00F VSB 1/4
OAKDALE        FOG       73  71  95 CALM      29.98R VSB 1/2
OPELOUSAS        N/A     72  71  98 CALM      29.99R
$$

ACROSS SOUTHWEST AND SOUTH CENTRAL LOUISIANA

CITY           SKY/WX    TMP DP  RH WIND       PRES   REMARKS
SULPHUR        CLOUDY    75  75  99 CALM      29.98F
LAKE CHARLES   CLOUDY    76  75  97 CALM      29.97F
CHENNAULT INT  CLOUDY    75  74  98 CALM      29.99F FOG
CAMERON PHI    SUNNY     79  77  94 W5        30.00F
DEQUINCY       FOG       73  72  99 CALM      29.99S VSB 1
JENNINGS         N/A     73  73  99 CALM      29.98F
LAFAYETTE      CLOUDY    73  73 100 CALM      29.99R
NEW IBERIA     CLOUDY    74  72  93 W3        29.99F
ABBEVILLE        N/A     72  71  99 CALM      29.99S
PATTERSON      CLOUDY    72  72 100 CALM      30.01S
SALT POINT       N/A     76  73  91 CALM      29.97F
$$

SELECTED SITES ACROSS THE REGION

CITY           SKY/WX    TMP DP  RH WIND       PRES   REMARKS
HOUSTON BUSH   CLOUDY    77  75  93 SE6       29.97F
HOUSTON HOBBY  CLOUDY    77  76  96 SE3       29.96F
GALVESTON      CLOUDY    81  78  91 S7        29.98F
COLLEGE STAT   MOCLDY    76  74  93 E5        29.98F
CONROE         MOCLDY    74  73  97 CALM      29.98F
HUNTSVILLE     PTCLDY    75  73  93 CALM      29.99S
LUFKIN         CLOUDY    76  72  87 E5        29.98F FOG
SHREVEPORT     CLOUDY    75  71  87 E3        29.99F
MONROE         MOCLDY    72  69  90 CALM      30.00F
NATCHEZ MS     PTCLDY    72  70  94 CALM      30.00F
BATON ROUGE    CLOUDY    73  71  93 E3        29.98F
N.O. INTL ARPT CLOUDY    77  72  84 N5        29.96F
SLIDELL        CLOUDY    73  71  93 CALM      29.96F
$$

MARINE REPORTS

STATION/POSITION TIME  TEMP    WIND        PRES    VSBY  WAVE
                       AIR SEA DIR/SP/G                  HT/PER
                 (UTC) (F)     (DEG/KT/KT) (MB)    (MI)  (FT/S)
BUOY 30 S HIGH I 0700   81 84  190/  6/  8 1014.7F         2/ 6
SEA RIM ST PARK  0700   78     100/  4/  4 1015.4F
PORT ARTHUR      0700      84  160/  5/  7 1015.3F
SABINE PASS N    0700   78 82  140/  4/  6 1015.1F
TEXAS POINT      0700   77 82  110/  3/  4 1015.2F
CALCASIEU PASS   0700   79 84  260/  7/  9 1016.1F
LK CHARLES BEACH 0700   76 84              1015.2S
MARSH ISLAND     NOT AVBL
FRESH WATER LOCK 0700   75 83   CALM  /  1 1015.2F
AMERADA PASS     0700   75 84   CALM  /  2 1015.0F
$$


USA.gov is the U.S. government's official web portal to all federal, state and local government web resources and services.